Sugar Grove, IL

6:11 AM CST on December 06, 2016 (GMT -0600)
Aurora Municipal

Weather History for KARR - March, 2013

Change the Weather History Date:

Thursday, March 7, 2013

  Actual Average Record
Temperature  
Mean Temperature 21 °F 33 °F  
Max Temperature 33 °F 43 °F 78 °F (2000)
Min Temperature 8 °F 24 °F -1 °F (1999)
Degree Days  
Heating Degree Days 44 32  
Month to date heating degree days 293 233  
Since 1 July heating degree days 5122 5371  
Cooling Degree Days 0 0  
Month to date cooling degree days 0 0  
Year to date cooling degree days 0 0  
Moisture  
Dew Point 21 °F    
Average Humidity 77    
Maximum Humidity 92    
Minimum Humidity 61    
Precipitation  
Precipitation 0.00 in 0.07 in 0.84 in (2009)
Month to date precipitation T 0.48  
Year to date precipitation 4.87 3.57  
Sea Level Pressure  
Sea Level Pressure 30.41 in    
Wind  
Wind Speed 4 mph (NW)    
Max Wind Speed 10 mph    
Max Gust Speed 12 mph    
Visibility 10 miles    
Events      
T = Trace of Precipitation, MM = Missing Value Source: NWS Daily Summary

Daily Weather History Graph

Daily Weather History Graph

Search for Another Location

Airport or City:

Trip Planner

Search our weather history database for the weather conditions in past years. The results will help you decide how hot, cold, wet, or windy it might be!

Date:

Astronomy

Mar. 07, 2013 Rise Set
Actual Time 6:18 AM CST 5:51 PM CST
Civil Twilight 5:50 AM CST 6:19 PM CST
Nautical Twilight 5:18 AM CST 6:51 PM CST
Astronomical Twilight 4:46 AM CST 7:24 PM CST
Moon 3:21 AM CST (3/7) 1:36 PM CST (3/7)
Length of Visible Light 12h 28m
Length of Day
11h 33m
Waning Crescent, 20% of the Moon is Illuminated
Mar 7
Waning Crescent
Mar 11
New
Mar 19
First Quarter
Mar 27
Full
Apr 2
Last Quarter

Hourly Weather History & Observations

Time (CST) Temp. Windchill Dew Point Humidity Pressure Visibility Wind Dir Wind Speed Gust Speed Precip Events Conditions
12:52 AM 27.0 °F 18.7 °F 23.0 °F 85% 30.34 in 10.0 mi WNW 8.1 mph - N/A   Overcast
1:52 AM 26.1 °F 19.4 °F 23.0 °F 88% 30.36 in 10.0 mi WNW 5.8 mph - N/A   Overcast
2:52 AM 26.1 °F 21.9 °F 23.0 °F 88% 30.36 in 10.0 mi NW 3.5 mph - N/A   Overcast
3:52 AM 26.1 °F - 23.0 °F 88% 30.37 in 10.0 mi Calm Calm - N/A   Overcast
4:52 AM 26.1 °F - 21.9 °F 84% 30.37 in 10.0 mi Calm Calm - N/A   Overcast
5:52 AM 25.0 °F - 21.0 °F 85% 30.38 in 10.0 mi Calm Calm - N/A   Overcast
6:52 AM 24.1 °F 18.2 °F 21.0 °F 88% 30.40 in 10.0 mi WNW 4.6 mph - N/A   Overcast
7:52 AM 24.1 °F 19.7 °F 21.0 °F 88% 30.41 in 10.0 mi NW 3.5 mph - N/A   Mostly Cloudy
9:52 AM 30.0 °F 26.5 °F 24.1 °F 79% 30.43 in 10.0 mi NW 3.5 mph - N/A   Overcast
10:52 AM 30.9 °F 25.2 °F 25.0 °F 79% 30.43 in 10.0 mi WNW 5.8 mph - N/A   Overcast
11:52 AM 32.0 °F 25.6 °F 24.1 °F 73% 30.43 in 10.0 mi WNW 6.9 mph - N/A   Overcast
12:52 PM 33.1 °F 27.7 °F 21.9 °F 64% 30.42 in 10.0 mi WSW 5.8 mph - N/A   Overcast
1:52 PM 32.0 °F 26.4 °F 23.0 °F 69% 30.40 in 10.0 mi NW 5.8 mph - N/A   Overcast
2:52 PM 32.0 °F 26.4 °F 24.1 °F 73% 30.41 in 10.0 mi NW 5.8 mph - N/A   Partly Cloudy
3:52 PM 30.9 °F 23.5 °F 23.0 °F 72% 30.42 in 10.0 mi NW 8.1 mph - N/A   Partly Cloudy
3:59 PM 30.2 °F 22.6 °F 23.0 °F 75% 30.39 in 10.0 mi NNW 8.1 mph - N/A   Mostly Cloudy
4:13 PM 30.2 °F 24.3 °F 23.0 °F 75% 30.39 in 10.0 mi NNW 5.8 mph - N/A   Partly Cloudy
4:52 PM 28.9 °F 25.2 °F 23.0 °F 78% 30.41 in 10.0 mi NW 3.5 mph - N/A   Clear
5:52 PM 27.0 °F 21.6 °F 21.0 °F 78% 30.42 in 10.0 mi NNW 4.6 mph - N/A   Clear
6:52 PM 25.0 °F 19.3 °F 19.0 °F 78% 30.43 in 10.0 mi North 4.6 mph - N/A   Clear
7:52 PM 19.0 °F - 16.0 °F 88% 30.43 in 10.0 mi Calm Calm - N/A   Clear
8:52 PM 16.0 °F - 14.0 °F 92% 30.44 in 9.0 mi Calm Calm - N/A   Mostly Cloudy
9:52 PM 15.1 °F 9.4 °F 12.9 °F 91% 30.45 in 8.0 mi NE 3.5 mph - N/A   Partly Cloudy
10:52 PM 16.0 °F - 14.0 °F 92% 30.44 in 7.0 mi Calm Calm - N/A   Clear